This is the latest recevied weather packets stored in our database for station/object CE3TL-WX. If no packets are shown the sender has not sent any weather packets the latest 10 day(s).
| Time | Temp. | Humidity | Pressure | Rain* | Wind** | Luminosity | Snow |
|---|---|---|---|---|---|---|---|
| 1778225211 | 8.33° C | 87% | 1028.6 hPa | - | - | - | - |
| 1778224677 | 8.33° C | 86% | 1028.7 hPa | - | - | - | - |
| 1778224143 | 8.33° C | 85% | 1028.9 hPa | - | - | - | - |
| 1778223609 | 8.89° C | 85% | 1028.9 hPa | - | - | - | - |
| 1778223072 | 8.89° C | 83% | 1028.7 hPa | - | - | - | - |
| 1778222538 | 8.89° C | 84% | 1028.5 hPa | - | - | - | - |
| 1778222001 | 8.89° C | 85% | 1028.8 hPa | - | - | - | - |
| 1778221467 | 8.89° C | 85% | 1028.7 hPa | - | - | - | - |
| 1778220933 | 9.44° C | 85% | 1029 hPa | - | - | - | - |
| 1778220399 | 9.44° C | 85% | 1029.3 hPa | - | - | - | - |
| 1778219865 | 10° C | 83% | 1029.1 hPa | - | - | - | - |
| 1778219329 | 10° C | 83% | 1029.1 hPa | - | - | - | - |
| 1778218795 | 10° C | 81% | 1029.5 hPa | - | - | - | - |
| 1778218261 | 10.56° C | 81% | 1029.1 hPa | - | - | - | - |
| 1778217727 | 10.56° C | 80% | 1029.2 hPa | - | - | - | - |
| 1778217194 | 10.56° C | 80% | 1029.6 hPa | - | - | - | - |
| 1778216660 | 10.56° C | 76% | 1029.6 hPa | - | - | - | - |
| 1778216126 | 10.56° C | 76% | 1029.8 hPa | - | - | - | - |
| 1778215593 | 10.56° C | 79% | 1029.8 hPa | - | - | - | - |
| 1778215059 | 10.56° C | 80% | 1029.5 hPa | - | - | - | - |
| 1778214524 | 11.11° C | 79% | 1029.7 hPa | - | - | - | - |
| 1778213990 | 11.11° C | 79% | 1029.9 hPa | - | - | - | - |
| 1778213456 | 11.11° C | 80% | 1030 hPa | - | - | - | - |
| 1778212921 | 11.11° C | 78% | 1029.9 hPa | - | - | - | - |
| 1778212387 | 11.11° C | 76% | 1030.2 hPa | - | - | - | - |
* Rain since midnight (hover to see other rain measurements)
** Current wind speed in m/s (hover to see current wind gust speed)